Rbgn^[z[y[W
メイン
   新天体発見情報
     Comet P/2021 L4 (PANSTARRS)
投稿するにはまず登録を

フラット表示 前のトピック | 次のトピック
投稿者 スレッド
佐藤裕久
投稿日時: 2021-7-5 23:51
モデレータ
登録日: 2005-6-12
居住地: 日本
投稿: 2585
オンライン
Comet P/2021 L4 (PANSTARRS)

R. Wainscoat (ハワイ大学, 天文学研究所)の通報によると、6月14日、Haleakalaにある
Pan-STARRS1 1.8-m Ritchey-Chretien反射望遠鏡で得た画像から彗星を発見した。
Wainscoatは、45秒3枚のサーベイ画像は、1".0のシーイングで集光した1".3 (半値全幅:
FWHM)のコマがあり、p.a. 120°に真直ぐな8"の尾があると注記した。
R. Weryk (西オンタリオ大学,物理および天文学科)は、6月14.4日UT、Wainscoatと彼が、
Mauna Keaにある3.6-m Canada-France-Hawaii望遠鏡で得た、60秒3枚のgri-バンドフォロー
アップ画像から、0".9のシーイングで集光した1".0コマ(FWHM))が見え、p.a. 115°に8"の
真直ぐな尾があり、この天体は明らかに彗星であると報告した。
小惑星センターのPCCP webpageに公表後、佐藤英貴氏(東京都文京区, 6月15.5日, 60秒露出
17枚のスタック, 0.51-m f/6.8 アストログラフ, Siding Spring, NSW, オーストラリア, 
遠隔操作: 強く集光した8"のコマが見えるが尾はない。4".9の円形範囲で測定した光度は20.1
等であった)らCCD位置観測者によって彗星状と観測された。

彗星機能の報告は次の通り:

OC   Date        Reporter           Coma    Tail    PA          Exposures
568  2021-06-14  R. Weryk           0".1    8"      115           3x60s
Q62  2021-06-15  H. Sato            8"                           17x60s  

発見位置は次のとおり、

     2021 UT             R.A. (2000) Decl.       Mag.
     June  9.33728   15 33 04.33   -19 30 55.3   20.9
           9.34827   15 33 03.92   -19 30 51.6   20.6
           9.35929   15 33 03.50   -19 30 47.6   20.8
           9.37028   15 33 03.07   -19 30 43.4   20.7
          14.27106   15 30 11.82   -19 01 27.3   21.2
          14.28229   15 30 11.43   -19 01 23.4   21.4
          14.29350   15 30 11.07   -19 01 19.5   21.3

MPCの楕円軌道要素、位置推算表は次のとおり、

Orbital elements:
    P/2021 L4 (PANSTARRS)                                                       
Epoch 2019 Oct. 4.0 TT = JDT 2458760.5                                          
T 2019 Sept. 16.29777 TT                                Rudenko                 
q   2.7583157            (2000.0)            P               Q                  
n   0.17464281     Peri.  235.69625     -0.45072259     -0.85317761             
a   3.1698271      Node   243.20762     +0.88473016     -0.38782852             
e   0.1298214      Incl.   17.10570     +0.11875053     -0.34882230             
P   5.64                                                                        
From 18 observations 2021 June 2-16, mean residual 0".3.                        
                                                                                
    P/2021 L4 (PANSTARRS)                                                       
Epoch 2025 May 5.0 TT = JDT 2460800.5                                           
T 2025 Apr. 29.14203 TT                                 Rudenko                 
q   2.7700352            (2000.0)            P               Q                  
n   0.17436802     Peri.  233.97993     -0.42372312     -0.86694244             
a   3.1731565      Node   243.12701     +0.89651111     -0.36002689             
e   0.1270411      Incl.   17.10961     +0.12933113     -0.34466134             
P   5.65                                                                        
From 18 observations 2021 June 2-16, mean residual 0".3.                        
                                                                                
    P/2021 L4 (PANSTARRS)                                                       
Epoch 2021 July 5.0 TT = JDT 2459400.5                                          
T 2019 Sept. 15.24355 TT                                Rudenko                 
q   2.7577894            (2000.0)            P               Q                  
n   0.17481098     Peri.  235.48450     -0.44741442     -0.85491553             
a   3.1677938      Node   243.19797     +0.88623344     -0.38441929             
e   0.1294290      Incl.   17.10754     +0.12004428     -0.34834070             
P   5.64                                                                        
From 18 observations 2021 June 2-16, mean residual 0".3.                        
                                                                                
Ephemeris:
Date    TT    R. A. (2000) Decl.     Delta      r    Elong.  Phase   m1
2021 05 24    15 44 47.5 -21 16 14   2.3275  3.3382   175.7     1.3  20.6
...
2021 06 08    15 33 55.0 -19 39 09   2.3879  3.3542   158.8     6.3  20.6
...
2021 06 16    15 29 17.0 -18 51 31   2.4451  3.3625   149.9     8.7  20.7
...
2021 06 22    15 26 31.9 -18 19 07   2.4981  3.3687   143.4    10.4  20.8
2021 06 23    15 26 08.4 -18 14 02   2.5078  3.3698   142.3    10.6  20.8
2021 06 24    15 25 45.9 -18 09 03   2.5176  3.3708   141.2    10.9  20.8
...
2021 06 30    15 23 55.8 -17 41 15   2.5808  3.3769   135.0    12.3  20.8
...
2021 07 08    15 22 35.9 -17 10 04   2.6752  3.3849   126.9    13.9  20.9
...
2021 07 23    15 23 32.0 -16 30 15   2.8765  3.3995   112.6    16.0  21.1

(MPEC 2021-M77、CBET 4986)

フラット表示 前のトピック | 次のトピック

題名 投稿者 日時
 » Comet P/2021 L4 (PANSTARRS) 佐藤裕久 2021-7-5 23:51

投稿するにはまず登録を
 
© 1999 Tsutomu Seki.